Sterling Muni, Sterling, CO, CO

11:13 AM MDT on August 22, 2017 (GMT -0600)
Sterling Municipal

Weather History for KSTK - December, 2013

Change the Weather History Date:

Friday, December 6, 2013

  Actual Average Record
Temperature  
Mean Temperature 7 °F -  
Max Temperature 14 °F 42 °F 55 °F (2014)
Min Temperature 0 °F 16 °F 0 °F (2013)
Degree Days  
Heating Degree Days 58    
Moisture  
Dew Point -1 °F    
Average Humidity 75    
Maximum Humidity 85    
Minimum Humidity 57    
Precipitation  
Precipitation 0.00 in - - ()
Sea Level Pressure  
Sea Level Pressure 30.23 in    
Wind  
Wind Speed 5 mph (ESE)    
Max Wind Speed 10 mph    
Max Gust Speed -    
Visibility 8 miles    
Events Snow    
Averages and records for this station are not official NWS values.
T = Trace of Precipitation, MM = Missing Value Source: NWS Daily Summary

Daily Weather History Graph

Daily Weather History Graph

Search for Another Location

Airport or City:

Trip Planner

Search our weather history database for the weather conditions in past years. The results will help you decide how hot, cold, wet, or windy it might be!

Date:

Astronomy

Dec. 06, 2013 Rise Set
Actual Time 7:02 AM MST 4:25 PM MST
Civil Twilight 6:31 AM MST 4:56 PM MST
Nautical Twilight 5:57 AM MST 5:30 PM MST
Astronomical Twilight 5:24 AM MST 6:03 PM MST
Moon 10:08 AM MST (12/6) 9:01 PM MST (12/6)
Length of Visible Light 10h 24m
Length of Day
9h 23m
Waxing Crescent, 20% of the Moon is Illuminated
Dec 6
Waxing Crescent
Dec 9
First Quarter
Dec 17
Full
Dec 25
Last Quarter
Jan 1
New

Hourly Weather History & Observations

Time (MST) Temp. Windchill Dew Point Humidity Pressure Visibility Wind Dir Wind Speed Gust Speed Precip Events Conditions
12:10 AM 3.2 °F -6.2 °F -0.4 °F 85% 30.18 in 10.0 mi ENE 4.6 mph - N/A   Overcast
12:30 AM 3.2 °F -4.2 °F -0.4 °F 85% 30.18 in 10.0 mi NE 3.5 mph - N/A   Overcast
12:50 AM 3.2 °F -7.8 °F -0.4 °F 85% 30.18 in 10.0 mi ENE 5.8 mph - N/A   Overcast
1:10 AM 5.0 °F -2.1 °F -0.4 °F 78% 30.18 in 7.0 mi East 3.5 mph - N/A   Overcast
1:30 AM 5.0 °F -4.1 °F -0.4 °F 78% 30.18 in 7.0 mi East 4.6 mph - N/A Snow Light Snow
1:50 AM 5.0 °F -2.1 °F -0.4 °F 78% 30.19 in 7.0 mi East 3.5 mph - N/A   Overcast
2:10 AM 3.2 °F -7.8 °F -0.4 °F 85% 30.19 in 7.0 mi East 5.8 mph - N/A Snow Light Snow
2:30 AM 3.2 °F -7.8 °F -0.4 °F 85% 30.19 in 5.0 mi East 5.8 mph - N/A Snow Light Snow
2:50 AM 3.2 °F -7.8 °F -2.2 °F 78% 30.20 in 7.0 mi East 5.8 mph - N/A Snow Light Snow
3:10 AM 3.2 °F -4.2 °F -2.2 °F 78% 30.20 in 7.0 mi East 3.5 mph - N/A Snow Light Snow
3:30 AM 1.4 °F -6.2 °F -2.2 °F 85% 30.20 in 5.0 mi East 3.5 mph - N/A Snow Light Snow
3:50 AM 1.4 °F -8.3 °F -2.2 °F 85% 30.20 in 7.0 mi East 4.6 mph - N/A Snow Light Snow
4:10 AM 1.4 °F -8.3 °F -4.0 °F 78% 30.21 in 10.0 mi East 4.6 mph - N/A Snow Light Snow
4:30 AM 1.4 °F -9.9 °F -4.0 °F 78% 30.21 in 4.0 mi East 5.8 mph - N/A Snow Light Snow
4:50 AM 1.4 °F -6.2 °F -4.0 °F 78% 30.21 in 7.0 mi East 3.5 mph - N/A Snow Light Snow
5:10 AM 1.4 °F - -4.0 °F 78% 30.21 in 7.0 mi Calm Calm - N/A Snow Light Snow
5:30 AM 1.4 °F - -4.0 °F 78% 30.21 in 5.0 mi Calm Calm - N/A Snow Light Snow
5:50 AM 1.4 °F - -4.0 °F 78% 30.22 in 5.0 mi Calm Calm - N/A Snow Light Snow
6:10 AM 1.4 °F - -4.0 °F 78% 30.22 in 7.0 mi Calm Calm - N/A Snow Light Snow
6:30 AM 1.4 °F -8.3 °F -4.0 °F 78% 30.23 in 2.5 mi ESE 4.6 mph - N/A Snow Light Snow
6:50 AM 1.4 °F -6.2 °F -4.0 °F 78% 30.23 in 2.5 mi East 3.5 mph - N/A Snow Light Snow
7:10 AM 1.4 °F -8.3 °F -4.0 °F 78% 30.23 in 3.0 mi East 4.6 mph - N/A Snow Light Snow
7:30 AM -0.4 °F -8.3 °F -5.8 °F 78% 30.25 in 4.0 mi NNE 3.5 mph - N/A Snow Light Snow
7:50 AM -0.4 °F -8.3 °F -4.0 °F 85% 30.25 in 10.0 mi ENE 3.5 mph - N/A Snow Light Snow
8:10 AM 1.4 °F -8.3 °F -2.2 °F 85% 30.26 in 10.0 mi ENE 4.6 mph - N/A   Clear
8:30 AM 3.2 °F - -2.2 °F 78% 30.26 in 7.0 mi Calm Calm - N/A   Mostly Cloudy
8:50 AM 5.0 °F -2.1 °F -0.4 °F 78% 30.26 in 7.0 mi ESE 3.5 mph - N/A Snow Light Snow
9:10 AM 5.0 °F -2.1 °F -0.4 °F 78% 30.27 in 10.0 mi ESE 3.5 mph - N/A   Scattered Clouds
9:30 AM 5.0 °F -5.6 °F -0.4 °F 78% 30.28 in 10.0 mi SSE 5.8 mph - N/A   Scattered Clouds
9:50 AM 6.8 °F -2.0 °F -0.4 °F 72% 30.28 in 10.0 mi South 4.6 mph - N/A   Mostly Cloudy
10:10 AM 8.6 °F 2.0 °F -0.4 °F 67% 30.28 in 10.0 mi South 3.5 mph - N/A   Scattered Clouds
10:30 AM 10.4 °F 2.2 °F -0.4 °F 62% 30.28 in 10.0 mi SSE 4.6 mph - N/A   Clear
10:50 AM 10.4 °F -2.4 °F 1.4 °F 67% 30.27 in 10.0 mi SSE 9.2 mph - N/A   Scattered Clouds
11:10 AM 10.4 °F 0.8 °F 1.4 °F 67% 30.26 in 10.0 mi South 5.8 mph - N/A   Mostly Cloudy
11:30 AM 12.2 °F -1.0 °F 1.4 °F 62% 30.25 in 10.0 mi South 10.4 mph - N/A   Mostly Cloudy
11:50 AM 12.2 °F -1.0 °F 1.4 °F 62% 30.24 in 10.0 mi South 10.4 mph - N/A   Scattered Clouds
12:10 PM 12.2 °F 2.9 °F 1.4 °F 62% 30.24 in 10.0 mi South 5.8 mph - N/A   Scattered Clouds
12:30 PM 14.0 °F 2.0 °F 1.4 °F 57% 30.23 in 10.0 mi SSW 9.2 mph - N/A   Mostly Cloudy
12:50 PM 14.0 °F 2.9 °F 3.2 °F 62% 30.22 in 10.0 mi South 8.1 mph - N/A   Mostly Cloudy
1:10 PM 12.2 °F 2.9 °F 1.4 °F 62% 30.21 in 10.0 mi South 5.8 mph - N/A   Mostly Cloudy
1:30 PM 12.2 °F -0.2 °F -0.4 °F 57% 30.22 in 10.0 mi South 9.2 mph - N/A   Mostly Cloudy
1:35 PM 12.2 °F 0.7 °F -0.4 °F 57% 30.22 in 10.0 mi South 8.1 mph - N/A   Mostly Cloudy